Regional Weather Roundup
Issued by NWS

Home | Current Version | Previous Version | Graphics & Text | Print | Product List | Glossary Off
Versions: 1 2 3 4 5 6 7 8 9 10 11 12 13 14 15 16 17 18 19 20 21 22 23 24 25 26 27 28 29 30 31 32 33 34 35 36 37 38 39 40 41 42 43 44 45 46 47 48 49 50

000
ASUS43 KDMX 281806
RWRIA

WEATHER ROUNDUP FOR IOWA
NATIONAL WEATHER SERVICE DES MOINES IA
100 PM CDT WED JUN 28 2017

NOTE: "FAIR" INDICATES FEW OR NO CLOUDS BELOW 12,000 FEET WITH NO
SIGNIFICANT WEATHER AND/OR OBSTRUCTIONS TO VISIBILITY.

* - THESE STATIONS ARE NOT NWS STATIONS...THUS NOT UNDER NWS
QUALITY CONTROL.  THEY ALSO DO NOT REPORT WEATHER SUCH
AS PRECIPITATION OR FOG.

IAZ001>003-012>014-020>022-031>034-043>046-281900-
   NORTHWEST IOWA

CITY           SKY/WX    TMP DP  RH WIND       PRES   REMARKS
CARROLL *      CLOUDY    82  70  65 SW18G30   29.66S HX  86
CHEROKEE *     MOSUNNY   78  73  83 SW12G17   29.63F HX  80
DENISON *      SUNNY     82  70  65 S17G29    29.66F HX  86
LE MARS *      MOSUNNY   82  68  61 SW14G21   29.63S HX  85
ORANGE CITY *  MOSUNNY   81  66  61 W12G17    29.63S HX  83
SHELDON *      MOSUNNY   81  66  61 W13G20    29.61S HX  83
SIOUX CITY     MOSUNNY   84  71  65 W12       29.62F HX  89
6HR MIN TEMP:  67; 6HR MAX TEMP:  84;

SPENCER        CLOUDY    80  69  69 SW17G25   29.62F HX  83
6HR MIN TEMP:  67; 6HR MAX TEMP:  80;

STORM LAKE *   MOSUNNY   75  72  88 SW13      29.66S
$$

IAZ055>058-069>071-079>083-090>094-281900-
   SOUTHWEST IOWA

CITY           SKY/WX    TMP DP  RH WIND       PRES   REMARKS
ATLANTIC *     MOSUNNY   82  72  69 SW22G31   29.69S HX  87
AUDUBON *      SUNNY     81  72  74 S15G24    29.70S HX  84
CLARINDA *     PTSUNNY   82  73  74 S13G23    29.74F HX  88
COUNCIL BLFS * PTSUNNY   81  73  78 SW16      29.69F HX  85
CRESTON *      CLOUDY    79  70  73 SW23G30   29.76S HX  81
HARLAN  *      MOSUNNY   82  72  69 SW18G24   29.72S HX  87
LAMONI         PTSUNNY   80  71  74 S17       29.77F HX  84
6HR MIN TEMP:  65; 6HR MAX TEMP:  80; 6HR PCP:  0.08;

RED OAK *      PTSUNNY   82  73  74 S18       29.70F HX  88
SHENANDOAH *   MOSUNNY   82  73  74 SW18      29.71F HX  88
$$

IAZ047>049-059>061-072>074-084-281900-
   CENTRAL IOWA

CITY           SKY/WX    TMP DP  RH WIND       PRES   REMARKS
AMES           MOSUNNY   82  72  71 SW21G29   29.68S HX  87
6HR MIN TEMP:  66; 6HR MAX TEMP:  82; 6HR PCP:  0.02;

ANKENY *       SUNNY     82  68  61 SW18G26   29.70F HX  85
BOONE *        MOSUNNY   81  70  69 SW17G23   29.68S HX  84
CHARITON *     CLOUDY    79  70  73 S23G32    29.76S HX  81
DES MOINES     MOSUNNY   84  68  58 S21G29    29.69F HX  87
6HR MIN TEMP:  68; 6HR MAX TEMP:  84; 6HR PCP: TRACE;

GRINNELL*      CLOUDY    80  67  66 SW18G30   29.73F HX  82
KNOXVILLE *    CLOUDY    79  68  69 SW21G33   29.72F HX  81
MARSHALLTOWN   CLOUDY    80  69  69 SW21G28   29.69F HX  83
6HR MIN TEMP:  68; 6HR MAX TEMP:  81; 6HR PCP:  0.01;

NEWTON *       CLOUDY    79  68  69 SW15G30   29.72S HX  81
PELLA *        CLOUDY    81  68  63 SW22G29   29.74F HX  84
PERRY *          N/A     82  72  70 SW17G28   29.68S HX  87
$$

IAZ004>006-015-016-023>025-035-036-281900-
   NORTH CENTRAL IOWA

CITY           SKY/WX    TMP DP  RH WIND       PRES   REMARKS
ALGONA *       CLOUDY    73  72  94 SW14      29.65F
CLARION *        N/A     72  72 100 SW9G15    29.68S FOG
ESTHERVILLE    CLOUDY    77  69  76 SW16G28   29.61R
6HR MIN TEMP:  65; 6HR MAX TEMP:  77;

FORT DODGE *   CLOUDY    72  66  83 SW6       29.69F
MASON CITY     CLOUDY    72  67  84 SW13      29.69R
6HR MIN TEMP:  67; 6HR MAX TEMP:  76; 6HR PCP:  0.03;

FOREST CITY *  RAIN      73  63  68 SW13      29.67R
WEBSTER CITY * CLOUDY    75  70  83 SW8       29.66S
IOWA FALLS *   PTSUNNY   78  68  72 SW17      29.70S HX  80
$$

IAZ007>011-017>019-026>030-037>042-050>054-066-281900-
   NORTHEAST IOWA

CITY           SKY/WX    TMP DP  RH WIND       PRES   REMARKS
CEDAR RAPIDS   CLOUDY    76  69  79 S18G26    29.74F
6HR MIN TEMP:  64; 6HR MAX TEMP:  76; 6HR PCP:  0.05;

CHARLES CITY * LGT RAIN  68  68 100 S10G17    29.70S
CLINTON *      LGT RAIN  75  69  81 MISG      29.82S
DECORAH *      CLOUDY    70  66  88 S14G21    29.70S
DUBUQUE        CLOUDY    69  65  86 S21G29    29.78F
6HR MIN TEMP:  61; 6HR MAX TEMP:  69; 6HR PCP:  0.28;

MONTICELLO *   CLOUDY    73  68  83 S18       29.76F
OELWEIN *      PTSUNNY   75  70  83 S20G25    29.72F
WATERLOO       MOSUNNY   80  64  58 S17G29    29.69F HX  82
6HR MIN TEMP:  66; 6HR MAX TEMP:  80; 6HR PCP:  0.01;

$$

IAZ064-065-067-068-078-281900-
   EAST CENTRAL IOWA

CITY           SKY/WX    TMP DP  RH WIND       PRES   REMARKS
IOWA CITY      CLOUDY    79  67  66 S23G33    29.78F HX  81
6HR MIN TEMP:  66; 6HR MAX TEMP:  80; 6HR PCP:  0.08;

MT. PLEASANT * PTSUNNY   79  66  64 S22G31    29.81F HX  81
MUSCATINE *    MOSUNNY   81  66  61 S23G31    29.79S HX  83
QUAD CITIES    CLOUDY    76  66  71 S14G26    29.80R
6HR MIN TEMP:  63; 6HR MAX TEMP:  76; 6HR PCP:  1.60;

$$

IAZ062-063-075>077-085>089-095>099-281900-
   SOUTHEAST IOWA

CITY           SKY/WX    TMP DP  RH WIND       PRES   REMARKS
BURLINGTON     CLOUDY    80  69  69 S20G29    29.83F HX  83
6HR MIN TEMP:  68; 6HR MAX TEMP:  80; 6HR PCP:  0.06;

FAIRFIELD *    PTSUNNY   81  66  61 SW21G29   29.79S HX  83
FORT MADISON * CLOUDY    79  68  69 S15G26    29.84F HX  81
KEOKUK *       CLOUDY    81  68  65 SW14G22   29.84F HX  83
OSKALOOSA *    PTSUNNY   80  68  66 S24G31    29.76F HX  82
CENTERVILLE *  PTSUNNY   79  68  69 S17       29.81F HX  81
OTTUMWA        PTSUNNY   81  68  64 S23G35    29.76F HX  84
6HR MIN TEMP:  70; 6HR MAX TEMP:  81; 6HR PCP: TRACE;

WASHINGTON *   PTSUNNY   79  68  69 SW22G31   29.80R HX  81
$$

ABBREVIATIONS USED IN REMARKS
   TC - TEMPERATURES IN CELSIUS
  WCI - WIND CHILL INDEX
   HX - HEAT INDEX
  VSB - VISIBILITY
$$




USA.gov is the U.S. government's official web portal to all federal, state and local government web resources and services.